N7WWK-1 Weather Reports


Display with metric or nautical units.
time (UTC)temp
F
wind
direction
speed
MPH
gust
MPH
rain 1hr
in
rain 24hr
in
rain mn
in
humidity
%
barometer
mb
20260505211005 82 84 3.0 10.0 0.00 0.00 0.00 49 1013.2
20260505210214 82 92 2.0 10.0 0.00 0.00 0.00 49 1013.2
20260505205005 82 94 2.0 10.0 0.00 0.00 0.00 48 1013.3
20260505204004 82 86 3.0 8.0 0.00 0.00 0.00 49 1013.3
20260505203005 83 88 3.0 9.0 0.00 0.00 0.00 48 1013.2
20260505202005 83 80 2.0 6.0 0.00 0.00 0.00 48 1013.3
20260505201005 83 88 2.0 11.0 0.00 0.00 0.00 49 1013.4
20260505200005 83 101 2.0 8.0 0.00 0.00 0.00 49 1013.6
20260505195005 83 92 2.0 5.0 0.00 0.00 0.00 49 1013.6
20260505194004 82 81 2.0 10.0 0.00 0.00 0.00 49 1013.6
20260505193004 83 87 2.0 6.0 0.00 0.00 0.00 49 1013.7
20260505192005 82 78 3.0 7.0 0.00 0.00 0.00 50 1013.9
20260505191004 83 84 2.0 9.0 0.00 0.00 0.00 50 1014.1
20260505190005 82 80 1.0 3.0 0.00 0.00 0.00 50 1013.9
20260505185005 82 79 2.0 7.0 0.00 0.00 0.00 50 1014.1
20260505184004 84 103 2.0 6.0 0.00 0.00 0.00 48 1014.4
20260505183004 84 112 2.0 6.0 0.00 0.00 0.00 48 1014.2
20260505182005 85 88 2.0 7.0 0.00 0.00 0.00 46 1014.2
20260505181004 84 137 1.0 3.0 0.00 0.00 0.00 47 1014.4
20260505180216 83 89 2.0 7.0 0.00 0.00 0.00 49 1014.2
20260505175004 83 86 3.0 9.0 0.00 0.00 0.00 48 1014.5
20260505174004 83 86 2.0 7.0 0.00 0.00 0.00 50 1014.6
20260505173005 81 80 1.0 2.0 0.00 0.00 0.00 51 1014.9
20260505172004 80 80 2.0 4.0 0.00 0.00 0.00 53 1015.0
20260505171004 81 85 2.0 8.0 0.00 0.00 0.00 52 1014.7
20260505170005 82 70 2.0 4.0 0.00 0.00 0.00 51 1015.1
20260505165004 82 69 1.0 2.0 0.00 0.00 0.00 49 1015.0
20260505164004 80 83 2.0 8.0 0.00 0.00 0.00 53 1015.3
20260505163215 79 94 2.0 6.0 0.00 0.00 0.00 54 1015.2
20260505162216 82 80 1.0 4.0 0.00 0.00 0.00 50 1015.3
20260505161004 80 88 2.0 8.0 0.00 0.00 0.00 53 1015.1
20260505153215 80 102 1.0 4.0 0.00 0.00 0.00 55 1015.1
20260505152216 80 202 1.0 3.0 0.00 0.00 0.00 56 1015.3
20260505151005 79 76 2.0 8.0 0.00 0.00 0.00 57 1015.3
20260505140219 76 81 2.0 7.0 0.00 0.00 0.00 65 1015.2
20260505125005 72 73 1.0 3.0 0.00 0.00 0.00 72 1014.6
20260505124004 72 86 1.0 6.0 0.00 0.00 0.00 72 1014.8
20260505123005 72 76 1.0 2.0 0.00 0.00 0.00 76 1014.8
20260505122218 70 79 1.0 2.0 0.00 0.00 0.00 80 1014.7
20260505121214 68 100 0.0 1.0 0.00 0.00 0.00 84 1014.8
20260505120005 66 0 0.0 0.0 0.00 0.00 0.00 87 1014.4
20260505115005 65 0 0.0 0.0 0.00 0.00 0.00 88 1014.4
20260505114004 63 0 0.0 0.0 0.00 0.00 0.00 94 1014.4
20260505113005 62 0 0.0 0.0 0.00 0.00 0.00 96 1014.2
20260505112004 59 0 0.0 0.0 0.00 0.00 0.00 97 1014.3
20260505111004 58 0 0.0 0.0 0.00 0.00 0.00 97 1014.3
20260505102004 58 0 0.0 0.0 0.00 0.00 0.00 96 1013.6
20260505101004 58 0 0.0 0.0 0.00 0.00 0.00 96 1013.7
20260505100005 58 0 0.0 0.0 0.00 0.00 0.00 96 1013.7
20260505095217 58 0 0.0 0.0 0.00 0.00 0.00 96 1013.7
20260505094004 58 0 0.0 0.0 0.00 0.00 0.00 96 1013.5
20260505093005 59 0 0.0 0.0 0.00 0.00 0.00 96 1013.6
20260505092004 59 0 0.0 0.0 0.00 0.00 0.00 96 1013.5
20260505091005 59 0 0.0 0.0 0.00 0.00 0.00 96 1013.4
20260505090005 58 0 0.0 0.0 0.00 0.00 0.00 95 1013.2
20260505085004 58 0 0.0 0.0 0.00 0.00 0.00 95 1013.2
20260505084005 59 0 0.0 0.0 0.00 0.00 0.00 95 1013.2
20260505083005 59 0 0.0 0.0 0.00 0.00 0.00 95 1013.6
20260505082004 59 0 0.0 0.0 0.00 0.00 0.00 95 1013.2
20260505081005 59 0 0.0 0.0 0.00 0.00 0.00 94 1013.2
20260505080005 59 0 0.0 0.0 0.00 0.00 0.00 94 1013.2
20260505075213 59 0 0.0 0.0 0.00 0.00 0.00 94 1013.2
20260505074214 59 0 0.0 0.0 0.00 0.00 0.00 94 1013.2
20260505073004 59 0 0.0 0.0 0.00 0.00 0.00 93 1013.4
20260505072004 59 0 0.0 0.0 0.00 0.00 0.00 93 1013.5
20260505071005 60 0 0.0 0.0 0.00 0.00 0.00 93 1013.5
20260505070005 60 0 0.0 0.0 0.00 0.00 0.00 93 1013.7
20260505065004 60 0 0.0 0.0 0.00 0.00 0.00 92 1013.4
20260505064004 60 0 0.0 0.0 0.00 0.00 0.00 92 1013.5
20260505063216 60 0 0.0 0.0 0.00 0.00 0.00 92 1013.6
20260505062217 60 0 0.0 0.0 0.00 0.00 0.00 91 1013.9
20260505061005 61 0 0.0 0.0 0.00 0.00 0.00 91 1014.1
20260505060005 61 0 0.0 0.0 0.00 0.00 0.00 90 1014.0
20260505055004 61 0 0.0 0.0 0.00 0.00 0.00 90 1014.1
20260505054004 62 0 0.0 0.0 0.00 0.00 0.00 89 1014.3
20260505053216 62 0 0.0 0.0 0.00 0.00 0.00 89 1014.3
20260505052004 62 0 0.0 0.0 0.00 0.00 0.00 88 1014.5
20260505051004 63 0 0.0 0.0 0.00 0.00 0.00 86 1014.5
20260505041004 66 62 0.0 2.0 0.00 0.00 0.00 81 1014.9
20260505040021 66 74 0.0 1.0 0.00 0.00 0.00 80 1014.9
20260505035004 66 93 0.0 1.0 0.00 0.00 0.00 80 1015.0
20260505034004 66 80 0.0 2.0 0.00 0.00 0.00 79 1015.1
20260505033004 67 94 0.0 2.0 0.00 0.00 0.00 79 1014.9
20260505032214 67 82 1.0 4.0 0.00 0.00 0.00 78 1015.0
20260505031215 67 87 0.0 2.0 0.00 0.00 0.00 78 1014.7
20260505030005 67 89 0.0 2.0 0.00 0.00 0.00 77 1015.0
20260505025004 68 97 0.0 3.0 0.00 0.00 0.00 76 1015.0
20260505024005 68 89 0.0 1.0 0.00 0.00 0.00 75 1014.9
20260505023004 68 100 0.0 3.0 0.00 0.00 0.00 75 1014.9
20260505022004 68 94 0.0 2.0 0.00 0.00 0.00 74 1015.0
20260505021005 68 89 0.0 2.0 0.00 0.00 0.00 74 1015.0
20260505020006 68 67 0.0 3.0 0.00 0.00 0.00 75 1015.0
20260505015004 69 81 0.0 1.0 0.00 0.00 0.00 74 1014.7
20260505014005 69 76 0.0 2.0 0.00 0.00 0.00 73 1014.9
20260505013004 69 82 1.0 4.0 0.00 0.00 0.00 72 1014.6
20260505012004 69 85 1.0 3.0 0.00 0.00 0.00 71 1014.6
20260505011216 69 83 0.0 1.0 0.00 0.00 0.00 71 1014.6
20260505010005 70 81 1.0 4.0 0.00 0.00 0.00 69 1014.3
20260505005005 70 91 0.0 1.0 0.00 0.00 0.00 69 1014.6
20260505004005 71 94 1.0 4.0 0.00 0.00 0.00 68 1014.5
20260505003004 71 89 1.0 4.0 0.00 0.00 0.00 67 1014.3
20260505002004 71 82 1.0 7.0 0.00 0.00 0.00 66 1014.4
20260505001005 72 78 2.0 7.0 0.00 0.00 0.00 66 1014.3
20260505000005 72 94 1.0 4.0 0.00 0.00 0.00 65 1014.1
20260504235004 72 81 2.0 8.0 0.00 0.00 0.00 64 1013.9
20260504234005 73 89 2.0 4.0 0.00 0.00 0.00 63 1013.8
20260504233215 73 83 2.0 7.0 0.00 0.00 0.00 62 1013.7
20260504232004 74 88 2.0 8.0 0.00 0.00 0.00 61 1013.4
20260504231005 74 85 2.0 9.0 0.00 0.00 0.00 61 1013.4
20260504230005 75 83 2.0 7.0 0.00 0.00 0.00 60 1013.7
20260504225004 76 87 1.0 4.0 0.00 0.00 0.00 59 1013.3
20260504224005 77 80 2.0 9.0 0.00 0.00 0.00 58 1013.2
20260504223005 77 86 2.0 9.0 0.00 0.00 0.00 57 1013.4
20260504222004 78 93 1.0 4.0 0.00 0.00 0.00 56 1013.6
20260504221005 77 72 3.0 8.0 0.00 0.00 0.00 56 1013.6
20260504220005 78 79 2.0 10.0 0.00 0.00 0.00 54 1013.4
20260504215005 78 92 2.0 9.0 0.00 0.00 0.00 55 1013.5
20260504214216 79 89 2.0 6.0 0.00 0.00 0.00 53 1013.5
20260504213005 78 90 2.0 9.0 0.00 0.00 0.00 53 1013.5
20260504212218 78 86 2.0 8.0 0.00 0.00 0.00 53 1013.6